Weather in Basra

Iraq     30˚37′13″N   47˚44′01″E
temp.,
°C
wind,
m/s
gust,
m/s
humid.,
%
clouds,
%
prec.,
mm/h
press.,
hPa
HPBL,
m
28 november, sat
sat2800:00+21˚e71164100 0.4 1020383
03:00+21˚s5958100 1.6 1020854
06:00+19˚s3574100 0.7 1021403
09:00+19˚ese4572100 1.0 1022419
12:00+20˚ese797672 1.3 1020459
15:00+20˚e687685 2.0 1018583
18:00+20˚ese81183100 2.9 1016607
21:00+20˚ese6108397 3.6 1016468
29 november, sun
sun2900:00+20˚se6979100 5.1 1015344
03:00+21˚ese6878100 9.6 1015261
06:00+20˚se2380100 1.8 1015129
09:00+21˚s247497 2.7 1016373
12:00+25˚ssw775311 0.6 10151325
15:00+23˚w765910 0.6 10141024
18:00+21˚wnw686613 0.1 1016617
21:00+19˚wnw710697 0.1 1017556
30 november, mon
mon3000:00+18˚wnw69680 0.0 1018429
03:00+17˚nw610720 0.0 1018427
06:00+16˚nw47770 0.0 1018300
09:00+17˚nw56700 0.0 1020393
12:00+20˚nw55590 0.0 1019784
15:00+21˚nw55470 0.0 10171087
18:00+20˚nnw45510 0.0 1018422
21:00+19˚nw45530 0.0 1018188
1 december, tue
tue100:00+17˚nnw35550 0.0 1018145
03:00+16˚nnw34590 0.0 1018114
06:00+16˚nw33580 0.0 101886
09:00+18˚nnw23486 0.0 1019272
12:00+20˚n113553 0.0 1018601
15:00+21˚wsw333470 0.0 1017850
18:00+18˚wsw3352100 0.0 1018163
21:00+17˚n2357100 0.7 1018159
2 december, wed
wed200:00+18˚ne465199 0.1 1017244
03:00+19˚e244896 0.1 1015163
06:00+19˚e455061 0.0 1016160
09:00+19˚ese245580 0.3 1017244
12:00+19˚ese796996 2.1 1016269
15:00+20˚ese587098 3.8 1014463
18:00+20˚se578596 0.5 1014359
21:00+20˚se6118449 0.6 1015349